Location: Cussy
(47.0410°N, 4.6412°E)
Time: 05:56:56
(UTC+00:00)

CZ-4B R/B - Pass Details

Date: 30 November 2020
Orbit: 809 x 881 km, 99.1° (Epoch: 18 January)

Event Time Altitude Azimuth Distance (km) Brightness Sun altitude
Rises 16:15:54 0° 142° (SE) 3,339 6.2 -4.0°
Reaches altitude 10° 16:18:20 10° 135° (SE) 2,404 5.4 -4.4°
Maximum altitude 16:23:18 42° 66° (ENE) 1,147 3.5 -5.1°
Drops below altitude 10° 16:28:15 10° 357° (N) 2,406 5.4 -5.9°
Sets 16:30:42 0° 351° (N) 3,343 6.1 -6.2°
